GW2584 Weather Reports


time (UTC)temp
C
wind
direction
speed
KPH
gust
KPH
rain 1hr
cm
rain 24hr
cm
rain mn
cm
humidity
%
barometer
mb
20260509124559 11 230 3.2 9.7 0.00 0.00 0.00 36 1016.8
20260509123103 11 217 6.4 9.7 0.00 0.00 0.00 35 1016.4
20260509121601 11 212 4.8 12.9 0.00 0.00 0.00 36 1016.2
20260509120057 11 251 6.4 12.9 0.00 0.00 0.00 35 1015.8
20260509114600 11 99 1.6 4.8 0.00 0.00 0.00 37 1015.6
20260509113100 11 0 1.6 4.8 0.00 0.00 0.00 38 1015.4
20260509111559 11 30 3.2 11.3 0.00 0.00 0.00 38 1015.3
20260509110056 11 0 0.0 4.8 0.00 0.00 0.00 38 1015.1
20260509104603 11 120 1.6 8.0 0.00 0.00 0.00 37 1015.3
20260509103106 12 254 0.0 20.9 0.00 0.00 0.00 36 1014.9
20260509101620 12 198 9.7 25.7 0.00 0.00 0.00 35 1014.7
20260509100059 12 203 6.4 16.1 0.00 0.00 0.00 35 1015.1
20260509094602 11 200 0.0 6.4 0.00 0.00 0.00 35 1015.2
20260509093059 12 200 1.6 16.1 0.00 0.00 0.00 35 1015.3
20260509091558 12 0 1.6 12.9 0.00 0.00 0.00 36 1015.1
20260509090105 12 185 4.8 11.3 0.00 0.00 0.00 35 1015.0
20260509084604 11 169 1.6 16.1 0.00 0.00 0.00 36 1014.9
20260509083109 11 266 3.2 8.0 0.00 0.00 0.00 37 1015.0
20260509081557 12 0 1.6 8.0 0.00 0.00 0.00 34 1015.1
20260509080059 12 227 6.4 11.3 0.00 0.00 0.00 33 1015.2
20260509074612 12 229 3.2 8.0 0.00 0.00 0.00 35 1015.3
20260509073107 12 0 0.0 9.7 0.00 0.00 0.00 35 1015.3
20260509071603 12 217 1.6 11.3 0.00 0.00 0.00 35 1015.5
20260509070106 12 221 1.6 12.9 0.00 0.00 0.00 37 1015.5
20260509064601 11 235 1.6 6.4 0.00 0.00 0.00 36 1015.5
20260509063102 11 250 0.0 4.8 0.00 0.00 0.00 43 1015.7
20260509061556 11 0 0.0 4.8 0.00 0.00 0.00 41 1015.6
20260509060112 10 221 0.0 8.0 0.00 0.00 0.00 49 1015.8
20260509054557 11 0 0.0 6.4 0.00 0.00 0.00 51 1016.0
20260509053116 11 249 6.4 11.3 0.00 0.00 0.00 51 1016.1
20260509051609 10 241 0.0 4.8 0.00 0.00 0.00 60 1016.4
20260509044559 10 0 1.6 6.4 0.00 0.00 0.00 59 1016.7
20260509043100 10 0 0.0 6.4 0.00 0.00 0.00 59 1017.0
20260509041556 10 0 0.0 4.8 0.00 0.00 0.00 58 1017.1
20260509040108 11 265 1.6 3.2 0.00 0.00 0.00 56 1017.4
20260509034555 11 239 3.2 8.0 0.00 0.00 0.00 55 1017.4
20260509033128 12 0 0.0 8.0 0.00 0.00 0.00 51 1017.5
20260509031555 12 205 1.6 6.4 0.00 0.00 0.00 51 1017.6
20260509030059 12 186 4.8 8.0 0.00 0.00 0.00 51 1017.5
20260509024606 12 202 1.6 4.8 0.00 0.00 0.00 51 1017.4
20260509023054 12 203 3.2 6.4 0.00 0.00 0.00 52 1017.3
20260509021557 12 0 0.0 1.6 0.00 0.00 0.00 51 1017.2
20260509020110 12 0 0.0 1.6 0.00 0.00 0.00 50 1017.1
20260509014557 13 224 0.0 1.6 0.00 0.00 0.00 49 1016.9
20260509013100 13 0 1.6 6.4 0.00 0.00 0.00 48 1016.9
20260509011604 13 123 1.6 9.7 0.00 0.00 0.00 47 1016.8
20260509010100 13 109 1.6 8.0 0.00 0.00 0.00 47 1016.7
20260509004555 14 86 3.2 14.5 0.00 0.00 0.00 46 1016.5
20260509003059 15 48 4.8 9.7 0.00 0.00 0.00 45 1016.6
20260509001556 15 45 0.0 12.9 0.00 0.00 0.00 45 1016.6
20260509000055 15 58 3.2 14.5 0.00 0.00 0.00 45 1016.6
20260508234603 15 0 0.0 11.3 0.00 0.00 0.00 44 1016.6
20260508233104 15 330 3.2 12.9 0.00 0.00 0.00 44 1016.4
20260508231600 16 55 3.2 9.7 0.00 0.00 0.00 44 1016.5
20260508230057 16 34 3.2 8.0 0.00 0.00 0.00 43 1016.6
20260508224556 16 92 8.0 19.3 0.00 0.00 0.00 43 1016.5
20260508223055 16 4 1.6 11.3 0.00 0.00 0.00 44 1016.5
20260508221558 15 284 6.4 14.5 0.00 0.00 0.00 45 1016.6
20260508220056 15 0 4.8 17.7 0.00 0.00 0.00 45 1016.7
20260508214556 15 35 4.8 19.3 0.00 0.00 0.00 46 1016.8
20260508213058 15 295 3.2 17.7 0.00 0.00 0.00 45 1016.9
20260508211557 15 112 6.4 24.1 0.00 0.00 0.00 45 1016.9
20260508210100 15 32 6.4 16.1 0.00 0.00 0.00 48 1017.1
20260508204558 15 96 8.0 14.5 0.00 0.00 0.00 49 1017.1
20260508203101 15 16 6.4 17.7 0.00 0.00 0.00 48 1017.2
20260508201558 15 4 9.7 19.3 0.00 0.00 0.00 50 1017.2
20260508200113 14 51 11.3 22.5 0.00 0.00 0.00 50 1017.4
20260508194607 14 43 6.4 22.5 0.00 0.00 0.00 52 1017.6
20260508193119 14 104 6.4 16.1 0.00 0.00 0.00 50 1017.6
20260508191607 13 22 6.4 16.1 0.00 0.00 0.00 52 1017.7
20260508190114 12 2 6.4 20.9 0.00 0.00 0.00 54 1017.8
20260508184601 13 93 4.8 14.5 0.00 0.00 0.00 54 1018.0
20260508183100 13 15 8.0 19.3 0.00 0.00 0.00 53 1018.1
20260508181603 12 99 6.4 14.5 0.00 0.00 0.00 57 1018.2
20260508180106 12 18 3.2 17.7 0.00 0.00 0.00 54 1018.5
20260508174556 12 67 6.4 14.5 0.00 0.00 0.00 56 1018.5
20260508173056 11 344 3.2 14.5 0.00 0.00 0.00 56 1018.6
20260508171557 12 113 3.2 14.5 0.00 0.00 0.00 58 1018.6
20260508170100 12 153 3.2 14.5 0.00 0.00 0.00 58 1018.6
20260508164554 12 14 6.4 12.9 0.00 0.08 0.00 59 1018.6
20260508163106 12 39 4.8 12.9 0.00 0.08 0.00 57 1018.4
20260508161559 12 31 3.2 12.9 0.00 0.08 0.00 55 1018.4
20260508160056 12 224 1.6 14.5 0.00 0.08 0.00 52 1018.3
20260508154559 12 6 1.6 12.9 0.00 0.28 0.00 60 1018.4
20260508153107 12 12 4.8 11.3 0.00 0.28 0.00 56 1018.3
20260508151557 13 13 3.2 11.3 0.00 0.28 0.00 40 1018.1
20260508150056 13 34 1.6 6.4 0.00 0.28 0.00 47 1018.1
20260508144557 11 154 0.0 3.2 0.00 0.69 0.00 55 1018.1
20260508143116 10 187 1.6 4.8 0.00 0.69 0.00 62 1018.5
20260508141605 9 267 1.6 4.8 0.00 0.69 0.00 65 1018.7
20260508140115 9 0 0.0 1.6 0.00 0.69 0.00 67 1018.7
20260508134556 8 271 1.6 6.4 0.00 0.69 0.00 69 1018.9
20260508133102 8 273 0.0 4.8 0.00 0.69 0.00 71 1018.8
20260508131556 7 0 0.0 8.0 0.00 0.69 0.00 74 1018.9
20260508130057 6 214 1.6 12.9 0.00 0.69 0.00 83 1019.0